Regional Weather Roundup
Issued by NWS

Home | Current Version | Previous Version | Text Only | Print | Product List | Glossary Off
Versions: 1 2 3 4 5 6 7 8 9 10 11 12 13 14 15 16 17 18 19 20 21 22 23 24 25 26 27 28 29 30 31 32 33 34 35 36 37 38 39 40 41 42 43 44 45 46 47 48 49 50

908
ASUS43 KTOP 231008
RWRKS

WEATHER ROUNDUP FOR KANSAS
NATIONAL WEATHER SERVICE GOODLAND KS
400 AM CST THU FEB 23 2017

NOTE:  "FAIR" INDICATES FEW OR NO CLOUDS BELOW 12,000 FEET WITH NO
SIGNIFICANT WEATHER AND/OR OBSTRUCTIONS TO VISIBILITY.

KSZ001>006-013>018-027>032-041>047-231100-
NORTHWEST KANSAS

CITY           SKY/WX    TMP DP  RH WIND       PRES   REMARKS
GOODLAND       CLOUDY    36  27  69 E14       29.62F WCI  27
HAYS             N/A     46  33  60 E22       29.61F
HILL CITY      CLOUDY    44  33  65 NE14      29.67F
RUSSELL        CLOUDY    48  35  60 E16       29.64S
$$

KSZ061>065-074>080-084>089-231100-
SOUTHWEST KANSAS

CITY           SKY/WX    TMP DP  RH WIND       PRES   REMARKS
DODGE CITY     CLOUDY    54  35  48 E7        29.60S
ELKHART          N/A     54  29  38 W14         N/A
GARDEN CITY    CLOUDY    51  35  54 S12       29.56F
GREAT BEND     MOCLDY    51  35  54 E20       29.63S
LIBERAL        CLOUDY    54  25  32 SW8       29.60F
PRATT          MOCLDY    47  35  63 NE8       29.61S
$$

KSZ066>073-081>083-090>101-231100-
SOUTHEAST KANSAS

CITY           SKY/WX    TMP DP  RH WIND       PRES   REMARKS
CHANUTE        CLEAR     50  44  80 E6        29.64R
COFFEYVILLE    CLEAR     53  47  79 S5        29.63R
HUTCHINSON     MOCLDY    52  39  61 NE12      29.60F
MEDICINE LODGE   N/A     51  42  71 CALM      29.57F
NEWTON         CLOUDY    50  40  68 NE12      29.62F
PARSONS        CLEAR     48  45  89 CALM      29.63S
WICHITA INTL   PTCLDY    48  43  82 NE7       29.59F
WICHITA JABRA  CLOUDY    47  43  86 NE9       29.59F
WICHITA MCCONL CLEAR     52  42  68 E8        29.59F
WINFIELD       CLEAR     48  41  76 E3        29.59F
$$

KSZ007>012-019>026-033>040-048>060-102>105-231100-
NORTHEAST KANSAS

CITY           SKY/WX    TMP DP  RH WIND       PRES   REMARKS
CONCORDIA      CLOUDY    46  38  73 NE14      29.70S
EMPORIA        MOCLDY    54  39  57 NE12      29.63F
LAWRENCE       CLOUDY    52  39  61 NE15G23   29.66F
MANHATTAN      CLOUDY    50  39  66 NE13      29.69S
MARYSVILLE     CLOUDY    45  37  76 NE6       29.73S
OLATHE IND     CLOUDY    54  39  57 NE12      29.66F
OLATHE EXE     CLOUDY    53  40  61 NE15G22   29.66F
SALINA         CLOUDY    54  37  52 E13G20    29.66S
TOPEKA BILLARD CLOUDY    52  39  61 NE12G18   29.68R
TOPEKA FORBES  PTCLDY    54  38  54 NE7       29.68R
$$




USA.gov is the U.S. government's official web portal to all federal, state and local government web resources and services.